User: anonymous   Login
Location: Unspecified
(0.0000°N, 0.0000°E)
Time: 03:55:22
(UTC+02:00)
Language:

Cosmos 494 Rocket - Orbit

View from above orbital plane
View from above orbital plane
View from above satellite
View from above satellite

Ground track
Ground track

The orbit data is extracted from the following two-line orbital elements,

1 06061U 72043B   16119.37790365  .00000069  00000-0  29857-4 0  9997
2 06061  74.0575 226.2325 0018957 101.3229 259.0058 14.40453674298582
Epoch (UTC): 28 April 2016 09:04:10
Eccentricity: 0.0018957
inclination: 74.0575°
perigee height: 743 km
apogee height: 770 km
right ascension of ascending node: 226.2325°
argument of perigee: 101.3229°
revolutions per day: 14.40453674
mean anomaly at epoch: 259.0058°
orbit number at epoch: 29858

The dashed part of the orbit path shows where the satellite is in the earth's shadow,  

DLR